Tracking 27111 objects as of 28-Mar-2023
HD Live streaming from Space Station
objects crossing your sky now

STARLINK-5819

Track STARLINK-5819 now!
10-day predictions
STARLINK-5819 is classified as:


NORAD ID: 55780
Int'l Code: 2023-028AR
Perigee: 364.2 km
Apogee: 368.3 km
Inclination: 70.0 °
Period: 91.7 minutes
Semi major axis: 6737 km
RCS: Unknown
Launch date: March 3, 2023
Source: United States (US)
Launch site: AIR FORCE WESTERN TEST RANGE (AFWTR)
Your satellite tracking list
Your tracking list is empty




NASA's NSSDC Master Catalog

Two Line Element Set (TLE):
1 55780U 23028AR  23087.40955081  .00004638  00000-0  40304-4 0  9998
2 55780  70.0022  85.8837 0003050 251.7457 108.3407 15.69931637  4542
Source of the keplerian elements: AFSPC